Flag for Brazil Weather past 2 weeks in Belém, Pará, Brazil

Now
75 °F

Clear.


Feels Like: 74 °F
Forecast: 75 / 91 °F
Wind: 7 mph from East

Location: Belem Aeroporto

Current Time: Sep 4, 2015 at 3:01:13 AM

Latest Report: Sep 4, 2015 at 2:00 AM


Visibility: 10 mi

Pressure: 29.89 "Hg

Humidity: 94%

Dew point: 73 °F

Location of BelémLocation

Historic Weather in Belém — Graph

°F

Belém temperature yesterday

Maximum temperature yesterday: 88 °F (at 12:00 PM)
Minimum temperature yesterday: 75 °F (at 5:00 AM)
Average temperature yesterday: 79 °F

Past Weeks' High & Low Weather Summary

 TemperatureHumidityPressure
High91 °F (Aug 26, 2:00 PM)94% (Aug 20, 5:00 AM)29.98 "Hg (Aug 20, 5:00 AM)
Low73 °F (Aug 23, 4:00 AM)49% (Aug 26, 2:00 PM)29.77 "Hg (Aug 24, 4:00 PM)
Average80 °F78%29.89 "Hg
* Reported Aug 20 2:00 AM — Sep 4 2:00 AM, Belém, Weather by CustomWeather, © 2015

Note: Actual official high and low records may vary slightly from our data, if they occured in-between our weather recording intervals... More about our weather records

Advertising

Belém weather history for previous 24 hours

 ConditionsComfort  
Time TempWeatherWind HumidityBarometerVisibility
2:00 AM
Fri, Sep 4
75 °FClear.7 mph94%29.89 "Hg10 mi
1:00 AM75 °FClear.6 mph94%29.92 "Hg10 mi
12:00 AM77 °FClear.10 mph89%29.95 "Hg10 mi
11:00 PM
Thu, Sep 3
77 °FClear.9 mph83%29.95 "Hg10 mi
10:00 PM77 °FPassing clouds.5 mph83%29.95 "HgN/A
9:00 PM77 °FClear.7 mph83%29.92 "Hg10 mi
8:00 PM77 °FPassing clouds.5 mph83%29.89 "HgN/A
7:00 PM79 °FThundershowers. Partly cloudy.3 mph84%N/AN/A
6:00 PM81 °FScattered showers. Broken clouds.6 mph84%29.86 "HgN/A
5:00 PM79 °FBroken clouds.9 mph79%29.83 "HgN/A
4:00 PM75 °FLight rain. Partly sunny.8 mph83%N/AN/A
3:00 PM77 °FStrong thunderstorms. Partly sunny.16 mph83%29.89 "Hg1 mi
2:00 PM86 °FPartly sunny.10 mph70%29.89 "HgN/A
1:00 PM86 °FPartly sunny.12 mph70%29.92 "HgN/A
12:00 PM88 °FPartly sunny.7 mph62%29.95 "HgN/A
11:00 AM86 °FPartly sunny.10 mph70%29.95 "HgN/A
10:00 AM84 °FPartly sunny.14 mph70%29.95 "HgN/A
9:00 AM82 °FScattered clouds.15 mph74%29.95 "HgN/A
8:00 AM79 °FPassing clouds.9 mph84%29.92 "HgN/A
7:00 AM77 °FSunny.5 mph89%29.92 "Hg10 mi
6:00 AM75 °FClear.6 mph94%29.89 "Hg10 mi
5:00 AM75 °FClear.7 mph94%29.89 "Hg10 mi
4:00 AM77 °FClear.5 mph89%29.89 "Hg10 mi
3:00 AM77 °FClear.7 mph89%29.89 "Hg10 mi
Weather by CustomWeather, © 2015

See weather overviewHow to use our weather pages